Location: Chevoux
(46.3801°N, 4.9476°E)
Time: 12:35:27
(UTC+00:00)

SL-08 RB Rocket - Pass Details

Date: 28 January 2021
Orbit: 647 x 683 km, 97.8° (Epoch: 07 March)

Event Time Altitude Azimuth Distance (km) Brightness Sun altitude
Exits shadow 18:59:23 47° 170° (S) 861 4.1 -24.2°
Maximum altitude 19:00:39 86° 256° (WSW) 660 3.6 -24.4°
Drops below altitude 10° 19:05:10 10° 346° (NNW) 2,063 6.4 -25.2°
Sets 19:07:23 0° 347° (NNW) 2,976 7.2 -25.6°
